CAPE
0 0 0 0 0 27 25 4 6 0 0 17 71 151 188 255 162 0 0 10 267 888 1343 946 359 274 493 762 529 375 307 268 363 167 99 80 150 308 710 816 339 8 0 0 0 0 0 0 0
0 0 0 0 0 1 13 1 9 0 21 73 87 118 164 121 72 103 78 344 314 761 1287 1057 691 439 740 1057 542 221 232 303 252 154 112 127 215 498 770 563 123 0 0 0 0 0 0 0 0
0 0 0 0 0 0 0 8 1 9 11 105 204 62 123 180 143 113 185 449 482 727 1103 1114 937 841 860 1095 522 170 246 332 242 214 165 187 228 589 648 217 1 0 0 0 0 0 0 0 0
0 0 0 0 0 0 0 0 3 26 81 126 145 166 148 108 69 77 415 261 185 403 881 1324 1233 1048 917 976 389 236 293 333 273 220 162 139 189 464 465 104 0 0 0 0 0 0 0 0 0
0 0 0 0 0 0 0 5 60 41 183 270 214 175 113 57 57 242 98 99 25 199 862 1308 1239 1048 922 834 300 292 362 197 168 160 161 133 114 276 409 85 2 0 0 0 0 0 0 0 0
0 0 0 0 0 0 0 2 56 195 385 239 200 197 98 93 114 145 5 12 65 62 400 756 978 893 828 541 323 250 176 97 142 182 190 135 66 108 270 119 0 0 0 0 0 0 0 0 0
0 0 0 0 0 0 0 0 60 275 294 331 218 137 75 83 160 113 5 105 25 43 32 220 483 547 511 380 240 230 155 183 256 203 115 145 92 25 106 201 42 0 0 0 0 0 0 0 0
0 0 0 0 0 0 0 0 113 214 221 386 255 169 77 12 291 129 13 221 175 6 23 37 164 321 317 306 303 300 273 289 251 184 136 147 103 45 33 95 227 61 0 0 0 0 0 0 0
0 0 0 0 0 0 0 0 33 165 282 328 353 199 133 27 25 228 351 269 182 43 47 115 61 113 129 236 425 476 392 382 395 338 228 178 68 66 53 25 32 119 62 65 122 69 0 14 42
0 0 0 0 0 0 0 0 0 126 152 290 248 134 161 86 176 412 462 306 269 131 18 100 79 19 95 252 384 433 373 480 374 365 252 204 44 15 3 30 90 170 484 489 595 356 99 192 3
0 0 0 0 0 0 0 0 0 61 73 160 144 207 337 279 121 511 555 427 391 265 20 24 26 29 39 74 182 391 386 469 397 326 221 152 184 60 61 195 300 391 675 779 831 404 92 32 0
0 0 0 0 0 0 0 0 0 0 0 38 175 190 491 388 275 243 727 716 635 407 146 53 24 37 70 123 181 164 199 382 285 303 222 220 363 323 276 261 438 546 624 643 331 52 44 0 0
0 0 0 0 0 0 0 0 0 0 0 0 227 526 461 422 290 191 148 711 777 573 335 130 65 39 64 255 575 498 239 279 282 345 377 405 459 560 548 531 568 637 538 213 77 0 0 0 0
0 0 0 0 0 0 0 0 0 0 0 38 31 368 370 356 233 220 109 106 664 621 508 398 381 391 347 435 748 760 586 547 594 709 651 675 577 539 398 300 282 325 0 0 0 0 0 0 0
0 0 0 0 0 0 0 0 0 0 0 29 42 295 452 336 229 234 146 61 93 378 481 540 515 509 546 655 804 839 852 741 753 737 835 801 717 578 272 276 106 34 0 0 0 0 0 0 0
0 0 0 0 0 0 0 0 0 0 0 0 230 372 498 430 289 188 124 75 45 61 388 502 533 496 638 766 855 808 872 953 771 780 922 891 823 511 322 237 167 17 0 0 0 0 0 0 0
0 0 0 0 0 0 0 0 0 0 0 0 12 430 490 465 352 194 133 44 39 40 243 420 473 468 641 809 967 932 844 599 637 472 757 883 678 515 336 286 159 16 0 0 0 0 0 0 0
0 0 0 0 0 0 0 0 0 0 0 0 0 85 525 442 382 225 139 70 37 31 129 351 476 537 642 573 705 751 673 573 606 498 482 697 595 500 331 189 53 7 0 0 0 0 0 0 0
0 0 0 0 0 0 0 0 0 0 0 0 0 0 0 312 397 166 144 123 42 48 109 214 455 544 637 603 472 512 715 824 715 798 686 595 539 408 281 108 31 5 0 0 0 0 0 0 0
0 0 0 0 0 0 0 0 0 0 0 0 0 0 0 11 302 116 115 127 107 120 154 199 402 523 667 813 731 657 570 718 749 845 712 501 434 114 154 144 34 2 0 0 0 0 0 0 0
0 0 0 0 0 0 0 0 0 0 0 0 0 0 0 0 10 214 156 183 150 133 175 164 430 557 679 944 969 1136 1045 869 823 690 646 373 329 137 108 11 3 0 0 0 0 0 0 0 0
0 0 0 0 0 0 0 0 0 0 0 0 0 0 0 0 0 215 249 249 300 274 290 355 550 892 1037 1131 1251 1358 1325 1298 1059 675 531 402 304 77 5 1 0 0 0 0 0 0 0 0 0
0 0 0 0 0 0 0 0 0 0 0 0 0 0 0 0 31 230 394 433 706 1067 1018 1186 1407 1552 1793 1748 1607 1487 1452 1298 751 545 490 404 148 3 0 0 0 0 0 0 0 0 0 0 0
0 0 0 0 0 0 0 0 0 0 0 0 0 107 413 471 710 899 1170 1098 1209 1392 1851 2043 2147 2565 2717 2716 2462 2037 1819 1351 965 612 510 294 69 14 0 0 0 0 0 0 0 0 0 0 0
0 0 0 0 0 0 0 0 0 0 0 0 0 281 255 167 883 1365 1642 1633 1600 1983 2205 2607 2871 3200 3353 2844 2580 2375 2003 1488 1095 740 627 367 66 0 0 0 0 0 0 0 0 0 0 0 0
0 0 0 0 0 0 0 0 0 0 0 0 0 0 0 458 1119 1633 1862 2011 2167 2218 2479 2525 2511 2520 2586 2579 2559 2226 1762 1282 877 664 505 251 127 63 0 0 0 0 0 0 0 0 0 0 0
0 0 0 0 0 0 0 0 0 0 0 0 0 0 0 76 1529 1733 2023 2132 2227 2469 2732 2767 2653 2495 2260 2023 1969 1800 1508 1174 724 282 170 143 35 0 0 0 0 0 0 0 0 0 0 0 0
0 0 0 0 0 0 0 0 0 0 0 0 0 0 0 48 1154 1942 2192 2133 2247 2604 2802 2653 2472 2329 1903 1780 1699 1375 1013 615 94 0 0 0 0 0 0 0 0 0 0 0 0 0 0 0 0
0 0 0 0 0 0 0 0 0 0 0 0 0 0 0 51 382 1349 2169 2209 2277 2270 2372 2365 2168 1926 1643 1494 1265 828 513 281 10 0 0 0 0 0 0 0 0 0 0 0 0 0 0 1 1
0 0 0 0 0 0 0 0 0 0 0 0 0 0 0 29 83 1040 2238 2181 2097 2036 2142 2176 1918 1731 1431 1215 765 323 81 13 0 0 0 0 0 0 0 0 0 0 0 0 0 0 0 0 0
CIN
-0 -0 -0 -0 -0 -205 -97 -107 -261 -52 -8 -170 -146 -58 -91 -106 -85 -0 -0 -73 -354 -221 -136 -143 -197 -230 -207 -175 -215 -228 -240 -244 -216 -262 -271 -273 -233 -187 -106 -85 -152 -290 -0 -0 -0 -0 -0 -0 -0
-0 -0 -0 -0 -0 -67 -66 -84 -91 -0 -69 -158 -116 -109 -85 -89 -233 -380 -416 -400 -339 -252 -165 -159 -183 -220 -186 -147 -216 -263 -264 -250 -253 -269 -277 -268 -230 -155 -106 -127 -228 -0 -0 -0 -0 -0 -0 -0 -0
-0 -0 -0 -0 -0 -0 -0 -95 -62 -112 -142 -170 -113 -149 -118 -111 -297 -356 -415 -375 -325 -245 -184 -163 -169 -184 -180 -147 -222 -281 -264 -240 -267 -264 -271 -246 -223 -147 -127 -193 -54 -0 -0 -0 -0 -0 -0 -0 -0
-0 -0 -0 -0 -0 -0 -0 -0 -88 -126 -71 -119 -108 -104 -173 -206 -312 -369 -418 -394 -381 -288 -197 -141 -148 -161 -181 -166 -237 -265 -249 -247 -267 -271 -279 -281 -225 -164 -146 -261 -0 -0 -0 -0 -0 -0 -0 -0 -0
-0 -0 -0 -0 -0 -0 -0 -43 -102 -116 -74 -80 -90 -128 -182 -252 -347 -412 -453 -410 -385 -333 -198 -132 -139 -162 -172 -183 -260 -255 -249 -276 -275 -284 -270 -270 -267 -199 -157 -269 -158 -0 -0 -0 -0 -0 -0 -0 -0
-0 -0 -0 -0 -0 -0 -0 -22 -86 -83 -98 -111 -96 -144 -219 -423 -333 -411 -143 -416 -360 -369 -280 -213 -167 -174 -185 -220 -259 -274 -291 -314 -286 -267 -269 -264 -319 -258 -201 -262 -0 -0 -0 -0 -0 -0 -0 -0 -0
-0 -0 -0 -0 -0 -0 -0 -0 -68 -98 -91 -96 -151 -112 -257 -363 -361 -395 -295 -336 -367 -349 -347 -300 -253 -228 -226 -245 -276 -280 -289 -285 -264 -266 -323 -281 -308 -372 -271 -261 -318 -0 -0 -0 -0 -0 -0 -0 -0
-0 -0 -0 -0 -0 -0 -0 -0 -47 -31 -99 -146 -193 -102 -217 -327 -365 -430 -419 -283 -298 -373 -377 -358 -311 -288 -284 -273 -278 -274 -278 -261 -260 -270 -302 -266 -285 -341 -364 -314 -271 -326 -0 -0 -0 -0 -0 -0 -0
-0 -0 -0 -0 -0 -0 -0 -0 -48 -126 -133 -137 -113 -143 -245 -274 -412 -406 -282 -261 -308 -363 -388 -377 -397 -358 -338 -315 -274 -252 -253 -238 -242 -250 -276 -291 -329 -342 -359 -388 -354 -298 -296 -291 -265 -267 -0 -164 -242
-0 -0 -0 -0 -0 -0 -0 -0 -0 -70 -125 -159 -164 -192 -273 -280 -328 -307 -251 -214 -237 -294 -466 -448 -431 -457 -398 -304 -286 -278 -274 -256 -269 -276 -309 -325 -390 -451 -175 -327 -321 -290 -205 -202 -184 -198 -248 -212 -34
-0 -0 -0 -0 -0 -0 -0 -0 -0 -35 -54 -98 -114 -186 -205 -216 -309 -268 -231 -216 -184 -222 -461 -492 -470 -499 -461 -384 -359 -321 -336 -316 -319 -335 -356 -379 -368 -418 -376 -313 -283 -251 -183 -163 -149 -200 -259 -246 -0
-0 -0 -0 -0 -0 -0 -0 -0 -0 -0 -0 -123 -167 -204 -202 -177 -205 -246 -253 -217 -192 -277 -353 -484 -515 -516 -494 -401 -382 -408 -396 -365 -378 -378 -375 -390 -333 -309 -308 -299 -231 -207 -190 -155 -207 -281 -263 -0 -0
-0 -0 -0 -0 -0 -0 -0 -0 -0 -0 -0 -0 -172 -166 -154 -153 -185 -185 -244 -231 -217 -264 -345 -423 -465 -466 -446 -354 -317 -348 -422 -424 -392 -353 -339 -328 -278 -248 -257 -239 -219 -192 -191 -234 -249 -24 -0 -0 -0
-0 -0 -0 -0 -0 -0 -0 -0 -0 -0 -0 -88 -158 -144 -149 -137 -186 -196 -219 -273 -267 -286 -314 -354 -386 -409 -417 -369 -325 -325 -358 -334 -327 -288 -267 -250 -226 -226 -266 -275 -252 -229 -0 -0 -0 -0 -0 -0 -0
-0 -0 -0 -0 -0 -0 -0 -0 -0 -0 -0 -76 -101 -143 -122 -111 -167 -162 -187 -271 -332 -329 -318 -329 -334 -412 -419 -371 -363 -331 -314 -307 -288 -264 -250 -240 -222 -198 -196 -176 -241 -290 -0 -0 -0 -0 -0 -0 -0
-0 -0 -0 -0 -0 -0 -0 -0 -0 -0 -0 -0 -101 -115 -117 -136 -134 -160 -206 -247 -288 -353 -344 -350 -343 -418 -395 -379 -358 -328 -316 -284 -312 -284 -236 -201 -186 -189 -211 -224 -251 -359 -0 -0 -0 -0 -0 -0 -0
-0 -0 -0 -0 -0 -0 -0 -0 -0 -0 -0 -0 -83 -98 -95 -146 -126 -166 -181 -241 -297 -338 -357 -355 -371 -392 -372 -350 -308 -291 -289 -338 -288 -332 -257 -194 -198 -218 -227 -253 -314 -405 -0 -0 -0 -0 -0 -0 -0
-0 -0 -0 -0 -0 -0 -0 -0 -0 -0 -0 -0 -0 -74 -92 -132 -118 -164 -187 -244 -275 -359 -393 -352 -363 -329 -348 -327 -292 -281 -263 -260 -245 -244 -259 -207 -230 -251 -270 -320 -353 -423 -0 -0 -0 -0 -0 -0 -0
-0 -0 -0 -0 -0 -0 -0 -0 -0 -0 -0 -0 -0 -0 -0 -112 -102 -176 -174 -248 -289 -340 -385 -368 -335 -347 -317 -336 -351 -328 -256 -239 -248 -219 -238 -274 -270 -296 -317 -374 -401 -467 -2 -0 -0 -0 -0 -0 -0
-0 -0 -0 -0 -0 -0 -0 -0 -0 -0 -0 -0 -0 -0 -0 -66 -130 -169 -238 -280 -278 -292 -323 -360 -358 -354 -347 -298 -293 -276 -261 -256 -241 -232 -265 -313 -290 -258 -303 -339 -426 -393 -0 -0 -0 -0 -0 -0 -0
-0 -0 -0 -0 -0 -0 -0 -0 -0 -0 -0 -0 -0 -0 -0 -0 -68 -183 -219 -236 -291 -309 -365 -364 -365 -352 -385 -348 -303 -282 -279 -301 -284 -313 -291 -364 -353 -373 -353 -345 -383 -0 -0 -0 -0 -0 -0 -0 -0
-0 -0 -0 -0 -0 -0 -0 -0 -0 -0 -0 -0 -0 -0 -0 -0 -0 -136 -183 -290 -268 -320 -405 -374 -386 -351 -332 -312 -255 -218 -199 -204 -270 -353 -374 -373 -369 -374 -76 -65 -50 -0 -0 -0 -0 -0 -0 -0 -0
-0 -0 -0 -0 -0 -0 -0 -0 -0 -0 -0 -0 -0 -0 -0 -0 -85 -125 -198 -285 -403 -340 -285 -294 -272 -258 -233 -210 -197 -172 -160 -202 -353 -401 -375 -340 -424 -103 -0 -0 -0 -0 -0 -0 -0 -0 -0 -0 -0
-0 -0 -0 -0 -0 -0 -0 -0 -0 -0 -0 -0 -2 -62 -88 -84 -118 -165 -248 -270 -233 -218 -221 -205 -184 -162 -146 -118 -109 -102 -116 -182 -250 -350 -330 -380 -461 -526 -0 -0 -0 -0 -0 -0 -0 -0 -0 -0 -0
-0 -0 -0 -0 -0 -0 -0 -0 -0 -0 -0 -0 -0 -92 -68 -80 -144 -109 -139 -154 -163 -180 -186 -187 -168 -126 -91 -91 -85 -60 -71 -133 -170 -261 -294 -338 -437 -56 -0 -0 -0 -0 -0 -0 -0 -0 -0 -0 -0
-0 -0 -0 -0 -0 -0 -0 -0 -0 -0 -0 -0 -0 -0 -0 -118 -92 -109 -113 -132 -153 -156 -179 -196 -207 -167 -132 -82 -53 -68 -110 -176 -226 -271 -315 -368 -372 -403 -0 -0 -0 -0 -0 -0 -0 -0 -0 -0 -0
-0 -0 -0 -0 -0 -0 -0 -0 -0 -0 -78 -0 -0 -0 -0 -136 -139 -91 -135 -142 -117 -188 -223 -221 -210 -174 -137 -114 -89 -131 -149 -179 -264 -386 -417 -377 -453 -0 -0 -0 -0 -0 -0 -0 -0 -0 -0 -0 -0
-0 -0 -0 -0 -0 -0 -0 -0 -0 -0 -0 -0 -0 -0 -0 -142 -59 -76 -73 -112 -190 -181 -211 -250 -223 -184 -192 -174 -142 -189 -263 -355 -536 -0 -0 -0 -0 -0 -0 -0 -0 -0 -0 -0 -0 -0 -0 -0 -0
-0 -0 -0 -0 -0 -0 -0 -0 -0 -0 -0 -0 -0 -0 -0 -47 -86 -70 -99 -168 -162 -222 -257 -281 -272 -239 -255 -243 -267 -343 -411 -462 -448 -71 -0 -0 -0 -0 -0 -0 -0 -0 -0 -0 -0 -0 -0 -22 -22
-0 -0 -0 -0 -0 -0 -0 -0 -0 -0 -0 -0 -0 -0 -0 -233 -144 -87 -90 -114 -179 -228 -320 -287 -262 -244 -283 -285 -387 -507 -601 -636 -0 -0 -0 -0 -0 -0 -0 -0 -0 -0 -0 -0 -0 -0 -0 -0 -0
Wind_Speed
20 18 16 16 17 19 20 20 18 15 15 13 5 18 18 17 18 19 14 14 18 19 21 22 21 20 19 18 17 16 15 15 14 14 15 15 16 17 17 18 18 17 17 18 18 17 17 18 18
21 18 17 16 16 19 22 18 11 14 16 14 17 19 21 19 19 15 12 13 19 19 20 19 19 18 17 16 16 15 14 14 14 14 14 14 15 16 17 17 17 16 17 17 16 16 17 17 18
21 18 15 14 17 20 25 10 10 10 11 15 16 19 20 19 18 14 11 13 14 15 18 18 17 16 15 15 15 14 13 13 13 13 13 14 15 16 16 16 16 16 16 15 15 15 15 16 17
21 18 17 13 20 26 16 2 16 13 12 10 14 19 21 15 14 14 16 13 11 12 14 17 17 16 15 14 14 13 13 12 12 12 13 14 14 15 15 15 15 15 14 14 14 14 14 16 17
20 17 14 17 19 25 21 17 12 13 18 17 16 20 20 17 13 16 17 14 13 11 10 13 16 15 14 14 13 13 12 12 12 12 13 13 13 13 14 13 13 13 12 12 12 12 13 15 16
20 16 17 19 22 21 12 21 12 10 14 17 19 19 19 17 17 18 19 17 15 14 13 12 14 14 14 13 13 12 12 12 12 12 12 12 12 12 12 12 11 11 11 10 10 10 12 14 16
17 17 21 23 23 19 16 21 12 12 13 15 16 20 16 14 17 17 19 18 20 19 16 14 13 14 14 13 13 13 13 12 11 11 11 11 11 11 11 11 10 9 9 8 7 9 11 13 15
14 17 21 17 19 21 24 23 13 12 13 13 14 17 14 13 17 18 16 18 19 19 16 16 16 15 15 15 15 14 13 12 11 11 10 10 10 10 10 10 9 8 7 7 6 7 9 12 17
13 13 22 17 17 19 26 31 18 15 12 11 12 15 17 20 20 19 13 14 19 17 16 17 17 17 16 16 15 14 13 12 12 11 11 10 10 9 10 9 9 7 5 5 6 7 9 15 17
7 7 21 15 26 22 14 27 29 12 12 13 14 17 18 18 18 17 14 14 19 18 19 18 18 18 17 16 16 15 14 13 13 11 11 10 10 10 10 9 7 5 4 4 7 8 12 16 20
9 14 24 26 27 25 19 23 26 10 10 7 10 13 15 15 14 17 17 17 21 21 19 21 20 19 19 18 17 16 15 14 14 13 13 13 12 11 9 7 5 4 3 7 9 12 14 17 20
12 19 22 30 29 25 20 21 25 16 15 4 7 11 14 13 14 17 18 20 21 22 21 22 22 22 21 19 20 19 16 15 15 15 15 14 11 9 8 6 5 5 5 5 8 13 15 18 20
17 20 25 24 22 15 18 31 29 27 15 8 5 8 11 14 16 18 17 19 21 22 22 23 24 22 21 20 20 19 18 16 17 15 14 12 10 8 7 6 6 5 6 8 12 13 16 18 19
22 25 25 27 26 29 22 31 24 29 8 5 5 10 11 12 17 17 17 18 22 23 22 23 24 23 22 21 21 19 17 16 15 13 12 10 8 6 7 7 6 7 8 11 13 15 18 21 24
25 25 24 22 25 25 25 21 14 20 4 1 7 11 13 12 15 17 17 17 20 22 22 22 21 20 20 19 19 18 16 15 13 11 9 7 6 4 6 8 9 8 9 10 12 16 21 24 24
23 20 21 21 27 25 13 13 15 20 2 3 11 12 11 12 13 16 17 18 19 19 21 20 20 18 19 17 17 16 14 13 12 10 6 5 5 5 7 8 9 9 10 11 15 20 23 25 24
18 21 25 26 27 30 6 3 15 16 13 5 11 13 16 15 15 17 19 19 19 19 17 17 17 17 17 15 12 11 11 8 7 6 4 4 3 3 5 8 9 10 12 14 17 20 23 24 24
14 21 27 33 30 29 25 4 10 16 2 3 12 7 14 16 19 17 17 18 18 19 15 15 15 15 16 12 9 6 5 4 2 1 1 2 1 3 6 8 10 12 14 16 19 21 22 24 24
18 29 35 30 29 30 27 23 11 3 19 28 31 10 7 12 20 15 15 16 15 14 14 13 13 13 13 9 6 5 6 3 3 3 1 1 1 4 6 9 11 13 15 18 20 22 25 25 27
22 23 28 29 31 32 33 29 27 29 30 31 32 33 11 8 11 13 15 13 14 15 14 13 14 13 11 8 6 4 5 4 5 4 2 2 4 9 6 10 12 15 16 19 22 25 27 26 27
24 27 30 31 32 28 32 34 35 37 34 36 38 30 24 9 14 15 17 22 15 16 14 12 13 11 9 7 5 6 6 10 10 7 4 5 7 7 10 12 14 15 17 20 23 25 27 29 27
23 24 25 29 30 31 29 36 34 31 32 34 37 22 16 5 9 13 20 21 19 17 11 9 8 8 7 7 7 8 9 10 11 8 6 7 7 10 11 11 14 15 18 21 24 25 26 26 28
22 21 25 25 28 26 26 25 23 31 29 32 28 11 11 4 5 9 11 10 7 7 7 6 8 10 10 10 10 11 12 13 12 8 7 7 9 8 9 13 13 15 19 22 24 25 25 26 26
20 22 25 23 22 21 24 23 27 33 32 29 22 12 12 9 8 8 5 4 6 8 6 6 8 10 11 11 12 12 12 12 11 10 8 7 8 11 13 12 14 16 19 22 23 24 25 24 24
17 16 21 22 20 18 28 25 26 26 29 26 21 17 13 10 8 7 5 4 5 3 2 2 6 10 10 11 14 14 14 14 12 9 8 6 6 10 10 13 14 17 20 22 24 24 24 23 23
12 14 12 14 15 6 26 21 23 25 21 22 21 23 21 18 7 5 7 8 8 5 2 4 6 10 12 14 15 16 15 13 11 9 8 6 9 9 10 13 17 18 22 23 22 22 22 21 23
12 11 11 11 12 12 12 19 19 24 24 24 22 23 25 22 7 4 3 3 6 4 5 7 7 8 9 12 13 12 10 8 7 7 8 9 11 11 11 14 18 21 22 22 21 21 20 21 23
23 20 16 17 11 11 12 15 15 26 28 25 23 22 22 21 15 9 3 2 5 5 5 6 5 5 9 11 10 9 10 9 10 11 12 14 13 13 14 18 20 22 22 21 20 21 21 22 22
29 26 22 16 12 13 14 15 11 25 26 25 24 21 24 21 19 6 6 4 5 5 4 4 6 7 8 10 10 9 9 9 11 12 12 13 14 15 16 19 22 23 22 22 22 22 24 24 23
17 18 23 22 24 15 14 13 17 23 24 23 24 25 25 24 23 12 4 2 4 7 7 7 10 9 7 9 10 9 8 9 10 11 11 12 15 17 19 21 22 24 25 24 26 26 25 24 25
Wind_Direction
319 325 291 336 3 1 357 4 13 96 51 81 240 45 28 15 12 359 47 85 109 113 120 123 118 114 110 104 96 89 78 70 61 56 56 55 56 56 57 57 57 56 58 60 58 49 42 35 25
304 310 300 340 358 360 355 356 47 144 54 87 27 6 355 5 6 30 51 94 114 114 120 121 120 114 110 103 97 91 80 73 65 61 58 55 56 58 59 59 56 59 65 65 58 53 47 38 29
296 286 324 356 2 354 338 35 119 132 158 41 17 1 14 7 18 58 47 96 104 108 117 120 119 114 109 104 99 92 82 75 66 62 59 59 62 62 59 59 62 73 71 64 59 49 39 28 18
302 293 292 346 348 325 356 65 158 264 315 86 59 15 20 28 62 58 89 97 98 105 111 118 117 114 110 106 101 93 84 76 69 63 65 67 66 64 61 63 71 75 71 69 60 45 28 13 8
304 300 326 317 351 346 320 13 138 68 15 54 44 14 13 19 49 82 98 100 107 106 108 112 116 115 111 108 104 95 86 78 76 75 74 75 71 67 69 69 71 69 64 64 52 32 18 10 9
293 306 295 295 292 308 224 36 89 55 65 35 33 29 21 50 76 99 105 106 112 118 116 114 116 115 113 111 105 100 95 91 86 84 81 79 72 71 72 72 70 65 63 58 47 32 20 9 2
299 299 270 276 272 277 280 322 52 68 40 31 46 22 34 76 96 101 106 104 110 116 118 119 119 117 116 115 114 110 106 101 94 91 83 78 77 80 81 78 81 75 69 75 64 31 15 7 359
301 292 275 302 313 258 291 303 38 44 21 69 55 32 44 94 107 105 99 106 113 117 117 124 127 125 126 126 125 123 117 109 107 96 88 87 89 88 92 94 96 98 92 64 43 30 14 2 354
305 301 226 292 319 309 283 315 353 3 44 27 49 43 74 102 101 103 87 97 113 117 122 128 132 134 134 133 134 130 128 123 119 110 108 103 98 93 110 111 117 116 102 65 32 15 4 357 356
333 322 192 305 273 245 247 316 328 36 35 25 32 45 89 99 96 101 104 113 130 129 139 138 138 139 139 137 139 139 133 131 130 123 119 118 120 121 130 135 137 130 102 45 21 11 3 356 351
2 167 211 224 239 246 243 257 313 28 16 59 63 68 90 93 94 107 122 126 140 143 137 147 144 142 141 143 145 141 139 141 142 142 143 147 136 134 132 124 119 106 53 28 19 13 4 356 352
182 207 221 237 244 244 240 330 325 337 350 70 78 87 91 90 116 127 128 140 139 143 144 148 148 150 149 145 147 149 144 146 149 152 153 148 133 125 128 131 105 69 55 39 20 9 5 1 355
217 229 254 241 234 220 232 281 295 308 341 5 89 92 98 112 129 139 135 145 146 147 147 151 150 152 150 148 147 148 149 143 151 147 145 135 130 123 114 94 72 60 40 20 12 10 4 358 355
263 263 257 257 241 265 287 280 315 256 0 18 126 134 125 125 141 143 147 145 156 155 153 152 153 152 149 151 150 151 148 149 148 144 144 140 133 111 55 55 50 43 36 23 11 2 357 353 351
285 291 272 258 272 253 318 245 225 210 18 29 160 155 154 144 147 158 156 152 153 162 157 157 156 154 154 156 157 156 156 155 155 151 149 148 145 105 57 43 39 31 25 19 10 1 356 351 351
305 318 311 275 285 262 333 228 221 206 355 15 173 175 169 168 169 169 168 166 162 158 163 160 159 158 159 159 161 160 160 164 168 164 156 147 123 66 41 35 24 22 16 8 360 355 351 350 351
321 308 293 291 300 332 28 188 206 196 186 191 181 187 192 189 179 178 176 172 167 165 164 166 166 165 164 160 149 146 155 144 132 137 136 142 126 54 28 16 14 13 7 2 358 354 352 350 350
339 317 310 296 315 326 342 343 186 218 87 46 355 210 201 194 194 188 179 176 172 169 168 169 171 172 170 167 165 154 154 152 87 109 118 141 113 26 11 11 10 8 3 358 355 353 355 352 350
327 307 283 301 317 316 321 340 11 28 331 311 289 338 207 216 207 199 188 178 178 176 171 175 176 178 179 184 187 201 213 244 301 331 308 4 342 346 360 4 4 1 357 356 355 353 351 350 350
326 325 314 312 308 315 305 313 320 304 306 306 272 251 257 235 208 211 198 190 189 188 184 184 184 183 189 200 217 253 247 284 306 304 306 319 320 315 356 356 359 356 355 355 354 352 349 349 350
321 316 311 311 313 327 316 299 299 278 295 286 285 252 231 238 202 198 198 192 192 192 196 198 191 192 198 213 237 302 306 317 315 310 314 315 322 330 349 354 357 356 356 353 351 349 349 346 348
320 330 320 315 320 314 330 300 299 303 285 281 291 223 197 311 181 180 189 192 195 194 195 201 207 218 249 251 256 266 270 281 293 283 292 311 320 327 350 2 356 355 355 351 350 351 349 349 346
334 333 326 323 316 321 331 339 330 312 312 314 321 344 351 41 126 156 170 190 211 202 208 238 262 276 277 267 267 267 281 296 305 302 306 314 328 345 3 359 358 355 352 349 350 350 351 349 348
346 342 332 333 327 321 336 342 323 328 322 324 310 13 26 44 60 34 100 133 173 174 192 217 262 278 282 287 280 280 282 300 302 301 306 315 334 344 354 0 356 354 353 351 352 351 349 350 349
26 24 357 351 345 333 327 331 328 330 358 11 332 350 9 22 21 69 70 83 140 164 170 299 300 305 305 297 302 299 292 294 294 295 308 315 328 341 355 353 354 353 353 352 351 350 350 350 348
50 42 42 21 12 3 333 337 342 334 333 349 352 357 343 328 42 75 101 113 124 126 63 2 337 322 321 317 311 310 304 303 306 313 319 321 332 349 353 350 349 350 348 348 351 351 349 349 346
17 20 31 24 24 19 38 358 339 333 333 329 331 339 335 342 15 99 36 72 119 43 26 10 355 345 341 338 329 328 326 328 335 346 344 336 342 346 348 350 345 344 345 347 349 346 345 344 344
352 354 8 7 26 24 16 6 7 333 325 338 347 346 347 353 5 339 5 71 5 29 30 14 5 360 355 360 0 354 352 351 351 351 346 347 351 350 348 343 342 343 345 347 344 341 340 339 339
315 328 341 352 3 1 359 358 10 336 337 333 345 343 343 335 335 324 333 353 356 2 17 7 5 9 4 9 7 3 358 358 350 348 350 352 352 351 346 343 340 342 344 342 340 338 337 337 338
333 345 343 340 334 336 338 346 343 334 335 334 331 323 330 335 339 353 350 345 338 338 360 1 357 345 357 6 10 12 9 357 351 352 352 351 347 346 344 344 343 342 343 345 342 341 341 340 340